Location: Lynch Observatory
(39.9540°N, 75.1861°W)
Time: 20:15:46
(UTC-05:00)

Amateur Radio Satellites - All Passes

Search period start: 18 January 2018 19:45
Search period end: 19 January 2018 19:45
Location: Lynch Observatory, 39.9540°N, 75.1861°W

Satellite Date Start Highest point End Downlink Frequencies (MHz)
Time Altitude Azimuth
FO-29 18 Jan 19:49:50 19:54:48 43° 99° (E) 19:59:46 435.910
CUBEBUG 2 18 Jan 19:50:24 19:52:15 12° 271° (W) 19:54:07 437.445
PCSat 18 Jan 19:52:05 19:57:28 67° 245° (WSW) 20:02:49 145.827
UWE-3 18 Jan 19:59:57 20:02:53 17° 268° (W) 20:05:53 435.000/436.395/437.385
HO-68 18 Jan 20:10:13 20:12:55 12° 272° (W) 20:15:38 435.675
Max Valier Satellite 18 Jan 20:23:24 20:26:36 27° 71° (ENE) 20:29:47 145.860
AO-85 18 Jan 20:25:33 20:29:53 30° 49° (NE) 20:34:26 145.980
STRAND 1 18 Jan 20:26:10 20:30:45 34° 292° (WNW) 20:35:20 437.568
BEESAT 2 18 Jan 20:26:13 20:30:06 49° 243° (WSW) 20:33:53 435.950
ZACube-1 18 Jan 20:29:40 20:32:27 16° 269° (W) 20:35:15 437.345
TIGRISAT 18 Jan 20:36:21 20:38:29 13° 90° (E) 20:40:37 435.000
AO-73 18 Jan 20:38:19 20:40:52 15° 269° (W) 20:43:28 145.935
DELFI C3 18 Jan 20:45:42 20:49:37 84° 80° (E) 20:53:33 145.870
EO-88 18 Jan 20:48:08 20:51:29 35° 72° (ENE) 20:54:51 145.990 - 145.960
UNISAT 6 18 Jan 20:49:48 20:53:17 20° 93° (E) 20:56:44 437.425
nSIGHT-1 18 Jan 21:10:16 21:13:24 74° 140° (SE) 21:16:34 .
ISS 18 Jan 21:13:09 21:16:18 50° 139° (SE) 21:19:29 437.550
ESTCUBE 1 18 Jan 21:29:13 21:31:43 15° 64° (ENE) 21:34:11 437.505/2401.250
FO-29 18 Jan 21:35:48 21:39:38 21° 296° (WNW) 21:43:27 435.910
PRISM 18 Jan 21:48:56 21:51:27 16° 93° (E) 21:53:58 437.425
Max Valier Satellite 18 Jan 21:57:45 22:00:23 18° 266° (W) 22:03:02 145.860
AO-85 18 Jan 22:05:44 22:10:24 39° 245° (WSW) 22:15:18 145.980
TIGRISAT 18 Jan 22:10:53 22:15:32 62° 286° (WNW) 22:20:10 435.000
LO-87 18 Jan 22:15:15 22:18:41 50° 75° (ENE) 22:22:10 145.935 - 145.965
EO-88 18 Jan 22:23:20 22:25:13 14° 268° (W) 22:27:07 145.990 - 145.960
UNISAT 6 18 Jan 22:25:43 22:30:05 40° 289° (WNW) 22:34:27 437.425
YUBILEINY 18 Jan 22:30:47 22:38:56 44° 88° (E) 22:47:05 435.215
nSIGHT-1 18 Jan 22:47:32 22:49:52 18° 339° (NNW) 22:52:12 .
ISS 18 Jan 22:50:16 22:52:57 23° 336° (NNW) 22:55:38 437.550
ESTCUBE 1 18 Jan 23:03:34 23:08:01 55° 260° (W) 23:12:29 437.505/2401.250
VELOX 1 18 Jan 23:14:46 23:18:20 25° 68° (ENE) 23:21:54 145.980
POLYITAN 1 18 Jan 23:17:55 23:21:22 23° 95° (E) 23:24:49 437.675
PRISM 18 Jan 23:23:04 23:26:51 38° 289° (WNW) 23:30:37 437.425
SPROUT 18 Jan 23:29:47 23:33:58 65° 75° (ENE) 23:38:11 437.525
AIST 2D 18 Jan 23:33:45 23:37:07 50° 285° (WNW) 23:40:28 435.315
NANOSAT C BR1 18 Jan 23:35:36 23:39:27 32° 97° (E) 23:43:16 145.865
O/OREOS (USA 219) 18 Jan 23:37:44 23:40:06 14° 99° (E) 23:42:28 437.305
QB50P2 18 Jan 23:46:49 23:51:03 57° 101° (E) 23:55:15 145.880/145.840
BUGSAT 1 18 Jan 23:58:51 23:59:36 10° 90° (E) 00:00:22 437.445
EO-79 19 Jan 00:18:36 00:22:53 69° 285° (WNW) 00:27:07 145.935-145.965
DUCHIFAT 1 19 Jan 00:20:25 00:24:42 88° 286° (WNW) 00:28:57 145.980
Oscar 19 19 Jan 00:21:36 00:24:09 14° 90° (E) 00:26:41 437.125/150
AO-91 19 Jan 00:24:53 00:27:42 16° 94° (E) 00:30:39 145.960
nSIGHT-1 19 Jan 00:26:33 00:27:02 10° 359° (N) 00:27:29 .
YUBILEINY 19 Jan 00:27:36 00:35:44 40° 287° (WNW) 00:43:54 435.215
ISS 19 Jan 00:29:20 00:30:21 11° 356° (N) 00:31:23 437.550
NO-84 19 Jan 00:37:37 00:40:28 59° 41° (NE) 00:43:28 435.350 FM
50 SAT 19 Jan 00:42:03 00:44:48 30° 72° (ENE) 00:47:33 437.505
VELOX 1 19 Jan 00:50:50 00:54:38 29° 263° (W) 00:58:28 145.980
POLYITAN 1 19 Jan 00:53:24 00:57:07 29° 290° (WNW) 01:00:48 437.675
UKube-1 19 Jan 01:07:01 01:11:08 48° 72° (ENE) 01:15:16 .
NANOSAT C BR1 19 Jan 01:11:42 01:14:55 21° 293° (WNW) 01:18:08 145.865
DX 1 19 Jan 01:13:37 01:17:57 84° 257° (WSW) 01:22:18 434.975-435.025
O/OREOS (USA 219) 19 Jan 01:14:37 01:19:01 52° 295° (WNW) 01:23:25 437.305
QB50P2 19 Jan 01:24:20 01:26:18 13° 296° (WNW) 01:28:17 145.880/145.840
Gurwin Techsat 1B 19 Jan 01:26:07 01:31:12 44° 99° (E) 01:36:15 435.225
BUGSAT 1 19 Jan 01:31:07 01:35:20 63° 285° (WNW) 01:39:31 437.445
ITUPSAT 1 19 Jan 01:31:36 01:34:25 16° 63° (ENE) 01:37:15 437.325
AO-7 19 Jan 01:42:42 01:44:35 11° 87° (E) 01:46:27 .
Oscar 19 19 Jan 01:58:46 02:03:56 68° 286° (WNW) 02:09:02 437.125/150
AO-91 19 Jan 02:00:02 02:04:14 48° 286° (WNW) 02:08:53 145.960
nSIGHT-1 19 Jan 02:02:07 02:04:14 16° 19° (NNE) 02:06:21 .
ISS 19 Jan 02:05:56 02:07:56 15° 16° (NNE) 02:09:56 437.550
BEESAT 19 Jan 02:11:00 02:15:23 38° 70° (ENE) 02:19:49 436.000
50 SAT 19 Jan 02:16:05 02:16:37 10° 267° (W) 02:17:09 437.505
CUBESAT XI-V 19 Jan 02:20:33 02:24:01 21° 66° (ENE) 02:27:29 437.345
MOZHAYETS 4 19 Jan 02:22:12 02:26:49 85° 79° (E) 02:31:29
UKube-1 19 Jan 02:45:06 02:47:23 14° 268° (W) 02:49:40 .
ITAMSAT 1 19 Jan 03:00:38 03:04:44 23° 94° (E) 03:08:49 435.822/435.867
Gurwin Techsat 1B 19 Jan 03:06:43 03:10:50 23° 295° (WNW) 03:14:56 435.225
ITUPSAT 1 19 Jan 03:07:04 03:11:44 57° 259° (W) 03:16:29 437.325
AO-7 19 Jan 03:30:23 03:38:45 68° 105° (ESE) 03:47:02 .
nSIGHT-1 19 Jan 03:37:38 03:40:48 81° 34° (NE) 03:44:00 .
ISS 19 Jan 03:41:42 03:44:57 59° 35° (NE) 03:48:12 437.550
BEESAT 19 Jan 03:49:39 03:53:15 21° 266° (W) 03:56:53 436.000
CUBESAT XI-V 19 Jan 03:56:41 04:01:05 40° 262° (W) 04:05:31 437.345
DOVE 4 19 Jan 03:58:54 04:02:13 21° 95° (E) 04:05:39 437.250
KKS-1 19 Jan 04:07:44 04:11:52 40° 71° (ENE) 04:16:00 437.445
FALCONSAT 3 19 Jan 04:18:55 04:21:16 16° 157° (SSE) 04:23:37 435.103
STARS 19 Jan 04:30:27 04:34:07 27° 68° (ENE) 04:37:49 437.465
ITAMSAT 1 19 Jan 04:39:27 04:44:19 41° 290° (WNW) 04:49:09 435.822/435.867
ISS 19 Jan 05:19:16 05:21:05 14° 230° (SW) 05:22:53 437.550
AO-7 19 Jan 05:24:03 05:30:51 29° 304° (NW) 05:37:37 .
M-CUBED/EXP-1 PRIME 19 Jan 05:24:58 05:28:14 46° 292° (WNW) 05:31:22 437.505
XW-2F 19 Jan 05:30:57 05:34:04 25° 96° (E) 05:37:10 145.980 - 146.000
SO-50 19 Jan 05:33:09 05:37:30 57° 118° (ESE) 05:41:55 436.795
KAITUO 1B 19 Jan 05:33:18 05:36:03 20° 94° (E) 05:38:47 145.475/437.950
DOVE 4 19 Jan 05:36:04 05:39:56 33° 289° (WNW) 05:43:58 437.250
XW-2D 19 Jan 05:38:29 05:41:57 35° 98° (E) 05:45:24 145.860 - 145.880
KKS-1 19 Jan 05:45:36 05:48:33 17° 267° (W) 05:51:32 437.445
HO-68 19 Jan 05:46:46 05:51:51 20° 92° (E) 05:56:55 435.675
NUDT-PHONESAT 19 Jan 05:47:54 05:51:06 28° 96° (E) 05:54:16 437.300
XW-2B 19 Jan 05:55:49 05:59:32 57° 100° (E) 06:03:13 145.730 - 145.750
FALCONSAT 3 19 Jan 05:56:27 05:59:50 35° 171° (S) 06:03:13 435.103
CUTE-I 19 Jan 05:57:03 06:02:08 44° 99° (E) 06:07:11 437.470
FO-29 19 Jan 06:01:48 06:06:46 22° 64° (ENE) 06:11:20 435.910
STRAND 1 19 Jan 06:02:18 06:06:57 37° 69° (ENE) 06:11:37 437.568
CUBEBUG 2 19 Jan 06:03:43 06:06:13 14° 90° (E) 06:08:42 437.445
SEEDS 19 Jan 06:06:06 06:07:22 11° 90° (E) 06:08:38 437.485
STARS 19 Jan 06:06:47 06:10:23 25° 264° (W) 06:14:01 437.465
CUTE 1.7 + AOD 2 19 Jan 06:12:36 06:16:02 24° 95° (E) 06:19:26 437.475
LilacSat-2 19 Jan 06:21:05 06:24:49 58° 285° (WNW) 06:28:30 437.200
XW-2C 19 Jan 06:26:03 06:29:44 54° 286° (WNW) 06:33:23 145.795 - 145.815
RS-15 19 Jan 06:49:26 06:59:13 29° 102° (ESE) 07:08:54 29.354- 29.394
AO-73 19 Jan 06:52:09 06:52:21 10° 88° (E) 06:52:33 145.935
XW-2F 19 Jan 07:05:14 07:08:01 20° 291° (WNW) 07:10:46 145.980 - 146.000
KAITUO 1B 19 Jan 07:06:57 07:09:57 24° 290° (WNW) 07:12:58 145.475/437.950
XW-2D 19 Jan 07:13:37 07:15:48 15° 293° (WNW) 07:17:58 145.860 - 145.880
SO-50 19 Jan 07:15:09 07:18:19 19° 317° (NW) 07:21:30 436.795
NUDT-PHONESAT 19 Jan 07:22:14 07:24:42 17° 292° (WNW) 07:27:10 437.300
Oscar 11 19 Jan 07:25:34 07:28:01 15° 92° (E) 07:30:26 .
AAUSAT CUBESAT 2 19 Jan 07:27:18 07:31:12 41° 98° (E) 07:35:04 437.432
HO-68 19 Jan 07:33:01 07:40:09 71° 289° (WNW) 07:47:15 435.675
FALCONSAT 3 19 Jan 07:35:09 07:38:35 38° 187° (S) 07:42:00 435.103
TIGRISAT 19 Jan 07:36:07 07:36:48 10° 61° (ENE) 07:37:28 435.000
CUTE-I 19 Jan 07:37:44 07:41:52 24° 295° (WNW) 07:46:01 437.470
CUBEBUG 2 19 Jan 07:38:28 07:43:08 59° 286° (WNW) 07:47:48 437.445
SEEDS 19 Jan 07:39:17 07:43:22 55° 285° (WNW) 07:47:25 437.485
STRAND 1 19 Jan 07:42:04 07:46:11 25° 265° (W) 07:50:21 437.568
FO-29 19 Jan 07:44:24 07:51:25 65° 258° (WSW) 07:57:39 435.910
UWE-3 19 Jan 07:48:05 07:52:48 82° 284° (WNW) 07:57:25 435.000/436.395/437.385
CUTE 1.7 + AOD 2 19 Jan 07:48:16 07:51:48 27° 290° (WNW) 07:55:19 437.475
UNISAT 6 19 Jan 07:48:38 07:51:19 16° 64° (ENE) 07:54:03 437.425
XW-2A 19 Jan 08:13:13 08:16:30 52° 285° (WNW) 08:19:45 145.665 - 145.685
ZACube-1 19 Jan 08:16:26 08:21:02 78° 283° (WNW) 08:25:31 437.345
AO-73 19 Jan 08:24:30 08:29:03 72° 285° (WNW) 08:33:30 145.935
DELFI C3 19 Jan 08:25:25 08:26:17 11° 91° (E) 08:27:10 145.870
PRISM 19 Jan 08:38:58 08:40:06 11° 63° (ENE) 08:41:15 437.425
YUBILEINY 19 Jan 08:42:28 08:48:35 20° 64° (ENE) 08:54:37 435.215
PCSat 19 Jan 08:51:49 08:55:13 17° 105° (ESE) 08:58:38 145.827
RS-15 19 Jan 08:58:07 09:10:29 80° 303° (WNW) 09:22:43 29.354- 29.394
Oscar 11 19 Jan 09:00:13 09:04:22 46° 287° (WNW) 09:08:29 .
AAUSAT CUBESAT 2 19 Jan 09:03:49 09:06:17 16° 294° (WNW) 09:08:45 437.432
TIGRISAT 19 Jan 09:08:22 09:12:45 79° 258° (WSW) 09:17:17 435.000
FALCONSAT 3 19 Jan 09:14:32 09:17:11 19° 201° (SSW) 09:19:50 435.103
UNISAT 6 19 Jan 09:23:20 09:27:34 48° 261° (W) 09:31:57 437.425
HO-68 19 Jan 09:23:24 09:26:37 14° 308° (NW) 09:29:50 435.675
Max Valier Satellite 19 Jan 09:26:52 09:30:22 39° 98° (E) 09:33:49 145.860
BEESAT 3 19 Jan 09:32:45 09:36:29 41° 116° (ESE) 09:40:16 437.485
O/OREOS (USA 219) 19 Jan 09:46:23 09:50:08 25° 60° (ENE) 09:53:50 437.305
EO-88 19 Jan 09:50:15 09:53:47 50° 99° (E) 09:57:18 145.990 - 145.960
DELFI C3 19 Jan 09:57:30 10:01:18 51° 286° (WNW) 10:05:07 145.870
AIST 2D 19 Jan 10:06:32 10:09:55 44° 74° (ENE) 10:13:17 435.315
POLYITAN 1 19 Jan 10:10:19 10:13:01 17° 65° (ENE) 10:15:45 437.675
PRISM 19 Jan 10:10:49 10:14:50 61° 258° (WSW) 10:18:52 437.425
BEESAT 2 19 Jan 10:16:13 10:19:45 31° 114° (ESE) 10:23:19 435.950
NANOSAT C BR1 19 Jan 10:27:09 10:30:24 22° 68° (ENE) 10:33:41 145.865
PCSat 19 Jan 10:32:42 10:38:03 63° 301° (WNW) 10:43:27 145.827
YUBILEINY 19 Jan 10:37:42 10:46:28 83° 265° (W) 10:55:09 435.215
QB50P2 19 Jan 10:38:26 10:42:19 37° 71° (ENE) 10:46:16 145.880/145.840
ESTCUBE 1 19 Jan 10:56:47 11:00:47 31° 97° (E) 11:04:45 437.505/2401.250
Max Valier Satellite 19 Jan 11:02:01 11:03:48 13° 294° (WNW) 11:05:35 145.860
EO-79 19 Jan 11:09:41 11:13:53 78° 75° (ENE) 11:18:08 145.935-145.965
DUCHIFAT 1 19 Jan 11:10:56 11:15:03 59° 74° (ENE) 11:19:12 145.980
BEESAT 3 19 Jan 11:11:15 11:14:10 19° 313° (NW) 11:17:06 437.485
RS-15 19 Jan 11:14:53 11:25:12 30° 330° (NNW) 11:35:20 29.354- 29.394
LO-87 19 Jan 11:15:26 11:19:05 72° 101° (ESE) 11:22:41 145.935 - 145.965
SPROUT 19 Jan 11:18:04 11:19:30 11° 90° (E) 11:20:57 437.525
O/OREOS (USA 219) 19 Jan 11:25:37 11:29:29 29° 256° (WSW) 11:33:23 437.305
EO-88 19 Jan 11:26:25 11:26:56 10° 295° (WNW) 11:27:27 145.990 - 145.960
Oscar 19 19 Jan 11:37:17 11:41:02 21° 64° (ENE) 11:44:48 437.125/150
POLYITAN 1 19 Jan 11:44:27 11:48:26 41° 261° (W) 11:52:29 437.675
BEESAT 2 19 Jan 11:54:08 11:57:28 24° 311° (NW) 12:00:49 435.950
NANOSAT C BR1 19 Jan 12:02:14 12:05:55 29° 263° (W) 12:09:39 145.865
QB50P2 19 Jan 12:15:25 12:18:13 17° 267° (W) 12:21:04 145.880/145.840
AO-85 19 Jan 12:19:24 12:23:19 87° 121° (ESE) 12:27:33 145.980
BUGSAT 1 19 Jan 12:19:32 12:23:34 79° 76° (ENE) 12:27:42 437.445
PCSat 19 Jan 12:20:43 12:22:33 12° 322° (NW) 12:24:24 145.827
ESTCUBE 1 19 Jan 12:33:50 12:37:25 24° 292° (WNW) 12:40:58 437.505/2401.250
YUBILEINY 19 Jan 12:37:25 12:41:48 15° 284° (WNW) 12:46:10 435.215
AO-7 19 Jan 12:39:29 12:44:59 20° 51° (NE) 12:50:29 .
VELOX 1 19 Jan 12:40:31 12:44:50 52° 100° (E) 12:49:07 145.980
Gurwin Techsat 1B 19 Jan 12:46:23 12:51:38 67° 73° (ENE) 12:56:55 435.225
DUCHIFAT 1 19 Jan 12:50:00 12:51:03 11° 270° (W) 12:52:07 145.980
SPROUT 19 Jan 12:51:30 12:55:43 58° 286° (WNW) 12:59:57 437.525
AO-91 19 Jan 12:57:24 13:00:43 56° 259° (W) 13:04:05 145.960
DX 1 19 Jan 13:03:23 13:06:15 17° 94° (E) 13:09:06 434.975-435.025
Oscar 19 19 Jan 13:14:56 13:19:58 50° 260° (W) 13:25:02 437.125/150
50 SAT 19 Jan 13:28:32 13:31:10 25° 97° (E) 13:33:48 437.505
RS-15 19 Jan 13:35:01 13:43:20 20° 5° (N) 13:51:25 29.354- 29.394
AO-85 19 Jan 14:02:49 14:04:26 12° 322° (NW) 14:06:07 145.980
SO-50 19 Jan 14:04:45 14:09:15 43° 53° (NE) 14:13:47 436.795
ITAMSAT 1 19 Jan 14:17:46 14:22:22 34° 68° (ENE) 14:27:00 435.822/435.867
VELOX 1 19 Jan 14:18:25 14:20:48 15° 296° (WNW) 14:23:12 145.980
MOZHAYETS 4 19 Jan 14:18:38 14:22:06 21° 93° (E) 14:25:33
AO-7 19 Jan 14:28:11 14:36:32 84° 70° (ENE) 14:44:58 .
Gurwin Techsat 1B 19 Jan 14:29:10 14:32:02 15° 269° (W) 14:34:53 435.225
UKube-1 19 Jan 14:30:05 14:34:24 84° 284° (WNW) 14:38:42 .
M-CUBED/EXP-1 PRIME 19 Jan 14:36:15 14:38:53 16° 62° (ENE) 14:41:26 437.505
DX 1 19 Jan 14:38:30 14:42:34 40° 289° (WNW) 14:46:37 434.975-435.025
50 SAT 19 Jan 15:01:02 15:02:38 13° 292° (WNW) 15:04:14 437.505
DOVE 4 19 Jan 15:04:20 15:07:24 19° 68° (ENE) 15:10:23 437.250
ITUPSAT 1 19 Jan 15:08:10 15:12:39 37° 98° (E) 15:17:04 437.325
SO-50 19 Jan 15:45:49 15:49:26 22° 249° (WSW) 15:53:05 436.795
BEESAT 19 Jan 15:48:47 15:53:35 82° 285° (WNW) 15:58:23 436.000
RS-15 19 Jan 15:49:42 16:00:34 39° 39° (NE) 16:10:53 29.354- 29.394
CUBESAT XI-V 19 Jan 15:53:28 15:57:59 51° 100° (E) 16:02:27 437.345
MOZHAYETS 4 19 Jan 15:55:05 15:59:21 37° 289° (WNW) 16:03:35
ITAMSAT 1 19 Jan 15:57:26 16:01:49 28° 264° (W) 16:06:14 435.822/435.867
M-CUBED/EXP-1 PRIME 19 Jan 16:08:37 16:12:55 49° 255° (WSW) 16:16:59 437.505
XW-2F 19 Jan 16:12:23 16:13:54 12° 65° (ENE) 16:15:26 145.980 - 146.000
HO-68 19 Jan 16:16:45 16:20:40 16° 54° (NE) 16:24:34 435.675
XW-2D 19 Jan 16:19:35 16:22:04 17° 67° (ENE) 16:24:33 145.860 - 145.880
AO-7 19 Jan 16:24:34 16:30:09 19° 268° (W) 16:35:48 .
NUDT-PHONESAT 19 Jan 16:27:20 16:29:00 13° 66° (ENE) 16:30:41 437.300
XW-2B 19 Jan 16:36:21 16:39:30 25° 70° (ENE) 16:42:39 145.730 - 145.750
DOVE 4 19 Jan 16:40:55 16:44:52 34° 262° (W) 16:48:43 437.250
ITUPSAT 1 19 Jan 16:46:26 16:50:13 23° 294° (WNW) 16:53:59 437.325
LilacSat-2 19 Jan 17:01:34 17:05:21 57° 74° (ENE) 17:09:09 437.200
CUBEBUG 2 19 Jan 17:03:08 17:03:46 10° 61° (ENE) 17:04:24 437.445
CUTE 1.7 + AOD 2 19 Jan 17:05:06 17:07:50 17° 66° (ENE) 17:10:34 437.475
XW-2C 19 Jan 17:05:50 17:09:36 59° 76° (ENE) 17:13:24 145.795 - 145.815
CUTE-I 19 Jan 17:18:04 17:23:20 68° 73° (ENE) 17:28:37 437.470
NO-84 19 Jan 17:28:12 17:31:17 76° 317° (NW) 17:34:12 435.350 FM
CUBESAT XI-V 19 Jan 17:32:07 17:34:54 16° 296° (WNW) 17:37:40 437.345
KKS-1 19 Jan 17:35:09 17:39:37 90° 316° (NW) 17:44:04 437.445
PCSat 19 Jan 17:39:14 17:42:25 15° 43° (NE) 17:45:35 145.827
XW-2F 19 Jan 17:43:53 17:47:34 47° 261° (W) 17:51:16 145.980 - 146.000
KAITUO 1B 19 Jan 17:44:49 17:48:33 61° 260° (W) 17:52:18 145.475/437.950
BEESAT 3 19 Jan 17:50:09 17:53:09 21° 47° (NE) 17:56:07 437.485
XW-2D 19 Jan 17:52:29 17:55:57 32° 263° (W) 17:59:26 145.860 - 145.880
STARS 19 Jan 17:55:34 17:59:56 57° 101° (E) 18:04:16 437.465
NUDT-PHONESAT 19 Jan 17:58:52 18:02:26 42° 261° (W) 18:06:01 437.300
HO-68 19 Jan 18:00:08 18:07:17 81° 72° (ENE) 18:14:28 435.675
RS-15 19 Jan 18:02:22 18:13:55 71° 245° (WSW) 18:24:51 29.354- 29.394
XW-2B 19 Jan 18:10:38 18:13:36 21° 265° (W) 18:16:34 145.730 - 145.750
STRAND 1 19 Jan 18:15:00 18:17:23 13° 90° (E) 18:19:44 437.568
AAUSAT CUBESAT 2 19 Jan 18:16:43 18:20:06 25° 69° (ENE) 18:23:29 437.432
Oscar 11 19 Jan 18:20:59 18:22:22 11° 63° (ENE) 18:23:44 .
SEEDS 19 Jan 18:29:26 18:33:40 87° 74° (ENE) 18:37:54 437.485
BEESAT 2 19 Jan 18:34:31 18:37:15 17° 45° (NE) 18:39:58 435.950
CUBEBUG 2 19 Jan 18:35:18 18:39:38 78° 258° (WSW) 18:44:09 437.445
CUTE 1.7 + AOD 2 19 Jan 18:39:15 18:43:18 42° 262° (W) 18:47:22 437.475
XW-2A 19 Jan 18:42:57 18:46:08 37° 74° (ENE) 18:49:20 145.665 - 145.685
UWE-3 19 Jan 18:43:46 18:48:07 72° 76° (ENE) 18:52:39 435.000/436.395/437.385
FO-29 19 Jan 18:56:50 18:59:15 13° 90° (E) 19:01:40 435.910
CUTE-I 19 Jan 19:01:02 19:03:50 14° 269° (W) 19:06:38 437.470
NO-84 19 Jan 19:08:15 19:08:51 10° 335° (NNW) 19:09:27 435.350 FM
ZACube-1 19 Jan 19:10:47 19:15:10 73° 76° (ENE) 19:19:42 437.345
AO-85 19 Jan 19:12:04 19:13:47 12° 38° (NE) 19:15:33 145.980
AO-73 19 Jan 19:18:28 19:22:52 78° 76° (ENE) 19:27:25 145.935
PCSat 19 Jan 19:21:08 19:26:35 88° 61° (ENE) 19:32:01 145.827
BEESAT 3 19 Jan 19:27:12 19:30:46 34° 245° (WSW) 19:34:16 437.485
STARS 19 Jan 19:33:33 19:35:45 14° 297° (WNW) 19:37:58 437.465
